KC3VCX Weather Reports


Display with metric or nautical units.
time (UTC)temp
F
wind
direction
speed
MPH
gust
MPH
rain 1hr
in
rain 24hr
in
rain mn
in
humidity
%
barometer
mb
20260509185420 62 96 2.0 2.0 0.00 0.20 0.20 69 1011.2
20260509184917 61 143 2.0 3.0 0.00 0.20 0.20 70 1011.1
20260509184414 61 195 4.0 6.0 0.00 0.20 0.20 72 1011.1
20260509183911 60 226 2.0 3.0 0.00 0.20 0.20 72 1011.2
20260509183405 60 158 3.0 3.0 0.00 0.20 0.20 73 1011.1
20260509182901 59 112 1.0 2.0 0.00 0.20 0.20 75 1011.2
20260509182358 59 145 3.0 3.0 0.00 0.20 0.20 74 1011.4
20260509181856 59 199 2.0 2.0 0.00 0.20 0.20 77 1011.2
20260509181353 59 217 3.0 6.0 0.00 0.20 0.20 76 1011.5
20260509180851 57 101 2.0 3.0 0.00 0.20 0.20 76 1011.1
20260509180346 57 314 1.0 2.0 0.00 0.20 0.20 80 1011.4
20260509175843 57 159 0.0 1.0 0.00 0.20 0.20 80 1011.4
20260509175339 57 184 4.0 4.0 0.00 0.20 0.20 78 1011.2
20260509174835 57 9 2.0 3.0 0.00 0.20 0.20 79 1011.3
20260509174331 58 327 3.0 3.0 0.00 0.20 0.20 78 1011.3
20260509173827 59 146 2.0 2.0 0.00 0.20 0.20 78 1011.2
20260509173323 58 122 1.0 2.0 0.00 0.20 0.20 78 1011.1
20260509172819 58 264 3.0 3.0 0.00 0.20 0.20 78 1011.4
20260509172316 57 160 1.0 2.0 0.00 0.20 0.20 81 1011.2
20260509171812 57 15 2.0 2.0 0.00 0.20 0.20 80 1010.9
20260509171308 58 73 2.0 3.0 0.00 0.20 0.20 80 1011.1
20260509170805 57 1 2.0 3.0 0.00 0.20 0.20 81 1011.2
20260509170300 59 95 2.0 3.0 0.00 0.20 0.20 79 1011.1
20260509165800 58 122 1.0 2.0 0.00 0.20 0.20 84 1011.2
20260509165255 56 170 3.0 6.0 0.00 0.20 0.20 85 1011.1
20260509164751 56 217 6.0 8.0 0.00 0.20 0.20 85 1011.0
20260509164241 56 148 4.0 7.0 0.00 0.20 0.20 87 1011.0
20260509163738 56 60 1.0 1.0 0.00 0.20 0.20 88 1011.0
20260509163234 55 240 6.0 8.0 0.00 0.20 0.20 89 1011.1
20260509162733 54 312 5.0 8.0 0.00 0.20 0.20 90 1011.1
20260509162222 54 154 1.0 2.0 0.00 0.20 0.20 91 1011.2
20260509161718 53 84 2.0 3.0 0.00 0.20 0.20 92 1011.0
20260509161214 53 161 3.0 3.0 0.00 0.20 0.20 92 1011.1
20260509160709 52 162 2.0 2.0 0.00 0.20 0.20 92 1011.0
20260509160206 52 108 1.0 2.0 0.05 0.20 0.20 92 1011.1
20260509155701 52 72 0.0 0.0 0.05 0.20 0.20 92 1011.4
20260509155157 52 115 1.0 1.0 0.00 0.19 0.19 92 1011.3
20260509154653 52 70 0.0 0.0 0.00 0.19 0.19 92 1011.2
20260509154151 52 355 1.0 1.0 0.00 0.19 0.19 92 1011.0
20260509153647 51 304 2.0 3.0 0.00 0.19 0.19 92 1010.9
20260509153144 52 222 0.0 2.0 0.00 0.19 0.19 92 1011.0
20260509152640 51 112 2.0 2.0 0.00 0.19 0.19 92 1011.1
20260509152137 52 63 2.0 3.0 0.00 0.19 0.19 92 1010.9
20260509151634 52 75 1.0 1.0 0.00 0.19 0.19 92 1011.0
20260509151131 52 154 2.0 3.0 0.00 0.19 0.19 92 1011.1
20260509150629 51 247 4.0 4.0 0.00 0.19 0.19 92 1011.2
20260509150127 51 79 2.0 2.0 0.00 0.19 0.19 92 1011.1
20260509145623 51 64 1.0 1.0 0.00 0.19 0.19 92 1010.9
20260509145118 51 244 2.0 2.0 0.00 0.19 0.19 92 1011.1
20260509144615 51 252 5.0 6.0 0.07 0.19 0.19 93 1011.0
20260509144112 51 263 2.0 3.0 0.07 0.19 0.19 93 1011.1
20260509143609 51 110 2.0 3.0 0.00 0.18 0.18 93 1010.9
20260509143107 51 83 2.0 2.0 0.00 0.18 0.18 93 1011.0
20260509142603 51 166 2.0 3.0 0.00 0.18 0.18 93 1011.1
20260509142059 51 213 2.0 2.0 0.00 0.18 0.18 93 1011.0
20260509141555 51 74 2.0 2.0 0.00 0.18 0.18 93 1011.0
20260509141052 51 48 1.0 1.0 0.00 0.18 0.18 93 1011.2
20260509140549 51 186 2.0 3.0 0.00 0.18 0.18 93 1011.1
20260509140047 51 329 1.0 2.0 0.00 0.18 0.18 93 1011.0
20260509135544 51 201 2.0 2.0 0.05 0.18 0.18 93 1011.1
20260509135042 50 215 4.0 7.0 0.05 0.18 0.18 93 1011.3
20260509134538 50 230 2.0 3.0 0.07 0.17 0.17 93 1011.3
20260509134036 50 231 2.0 2.0 0.07 0.17 0.17 93 1011.3
20260509133532 50 225 6.0 7.0 0.00 0.16 0.16 93 1011.3
20260509133030 50 118 2.0 2.0 0.05 0.16 0.16 93 1011.3
20260509132528 50 117 2.0 2.0 0.05 0.16 0.16 93 1011.4
20260509132026 50 359 1.0 1.0 0.07 0.15 0.15 93 1011.2
20260509131521 50 122 1.0 1.0 0.12 0.15 0.15 93 1011.5
20260509131018 50 126 1.0 1.0 0.05 0.14 0.14 93 1011.5
20260509130514 50 91 0.0 1.0 0.00 0.13 0.13 93 1011.5
20260509130011 50 183 2.0 2.0 0.00 0.13 0.13 93 1011.3
20260509125508 50 89 0.0 0.0 0.07 0.13 0.13 93 1011.5
20260509125003 50 64 1.0 2.0 0.07 0.13 0.13 93 1011.4
20260509124501 50 219 1.0 2.0 0.05 0.12 0.12 93 1011.4
20260509123958 50 104 1.0 1.0 0.12 0.12 0.12 92 1011.3
20260509123455 50 116 2.0 2.0 0.12 0.11 0.11 92 1011.6
20260509122951 50 48 2.0 4.0 0.05 0.10 0.10 92 1011.6
20260509122448 50 246 1.0 2.0 0.12 0.10 0.10 92 1011.7
20260509121945 50 84 0.0 1.0 0.07 0.09 0.09 92 1011.5
20260509121442 50 357 1.0 1.0 0.00 0.08 0.08 92 1011.4
20260509120940 50 118 1.0 1.0 0.07 0.08 0.08 92 1011.6
20260509120438 50 38 1.0 1.0 0.07 0.08 0.08 92 1011.6
20260509115935 50 204 1.0 2.0 0.05 0.07 0.07 92 1011.6
20260509115432 50 189 1.0 2.0 0.12 0.07 0.07 91 1011.6
20260509114929 50 197 2.0 2.0 0.12 0.06 0.06 91 1011.6
20260509114428 50 163 1.0 3.0 0.12 0.06 0.06 91 1011.6
20260509113927 50 30 0.0 1.0 0.07 0.04 0.04 91 1011.3
20260509113424 50 228 2.0 3.0 0.07 0.04 0.04 91 1011.5
20260509112921 50 247 2.0 3.0 0.00 0.03 0.03 90 1011.2
20260509112418 50 265 1.0 1.0 0.00 0.03 0.03 90 1011.3
20260509111915 50 228 1.0 2.0 0.00 0.03 0.03 90 1011.2
20260509111412 50 153 2.0 3.0 0.00 0.03 0.03 91 1011.2
20260509110910 50 95 1.0 1.0 0.00 0.03 0.03 91 1011.1
20260509110405 50 53 1.0 3.0 0.00 0.03 0.03 91 1011.0
20260509105904 50 192 4.0 8.0 0.00 0.03 0.03 90 1011.0
20260509105402 50 92 1.0 1.0 0.00 0.03 0.03 90 1011.1
20260509104858 50 211 2.0 2.0 0.00 0.03 0.03 90 1011.2
20260509104355 50 224 2.0 2.0 0.00 0.03 0.03 90 1011.2
20260509103853 49 160 1.0 2.0 0.05 0.03 0.03 90 1011.1
20260509103350 49 101 1.0 2.0 0.05 0.03 0.03 90 1011.0
20260509102849 49 280 2.0 2.0 0.00 0.02 0.02 90 1011.1
20260509102345 49 101 1.0 1.0 0.00 0.02 0.02 90 1011.3
20260509101841 49 79 0.0 0.0 0.00 0.02 0.02 90 1011.1
20260509101337 49 82 0.0 1.0 0.00 0.02 0.02 90 1011.2
20260509100836 49 200 2.0 3.0 0.00 0.02 0.02 90 1011.1
20260509100332 49 23 1.0 2.0 0.00 0.02 0.02 90 1011.0
20260509095829 49 130 1.0 1.0 0.00 0.02 0.02 89 1011.3
20260509095326 49 211 3.0 3.0 0.07 0.02 0.02 89 1011.4
20260509094823 49 62 0.0 1.0 0.07 0.02 0.02 89 1011.2
20260509094320 49 112 1.0 1.0 0.00 0.01 0.01 90 1011.3
20260509093818 49 234 1.0 3.0 0.00 0.01 0.01 90 1011.3
20260509093315 48 62 1.0 2.0 0.05 0.01 0.01 90 1011.5
20260509092813 48 276 2.0 3.0 0.05 0.01 0.01 91 1011.6
20260509092311 48 62 0.0 0.0 0.00 0.00 0.00 91 1011.6
20260509091809 48 88 0.0 0.0 0.00 0.00 0.00 92 1011.5
20260509091305 48 108 2.0 2.0 0.00 0.00 0.00 92 1011.5
20260509090803 48 57 0.0 0.0 0.00 0.00 0.00 92 1011.7
20260509090259 48 107 1.0 1.0 0.00 0.00 0.00 92 1011.7
20260509085757 48 91 0.0 0.0 0.00 0.00 0.00 92 1011.5
20260509085254 48 99 0.0 1.0 0.00 0.00 0.00 92 1011.4
20260509084750 48 89 0.0 0.0 0.00 0.00 0.00 92 1011.7
20260509084247 48 93 1.0 1.0 0.00 0.00 0.00 92 1011.6
20260509083745 48 94 0.0 0.0 0.00 0.00 0.00 92 1011.5
20260509083242 48 114 0.0 1.0 0.00 0.00 0.00 92 1011.4
20260509082738 48 248 2.0 2.0 0.00 0.00 0.00 92 1011.5
20260509082235 48 99 0.0 0.0 0.00 0.00 0.00 92 1011.3
20260509081732 48 99 0.0 0.0 0.00 0.00 0.00 92 1011.6
20260509081229 48 92 0.0 0.0 0.00 0.00 0.00 92 1011.7
20260509080727 48 336 1.0 1.0 0.00 0.00 0.00 92 1011.6
20260509080225 48 10 0.0 0.0 0.00 0.00 0.00 92 1011.5
20260509075723 48 10 0.0 0.0 0.00 0.00 0.00 91 1011.7
20260509075220 48 16 1.0 1.0 0.00 0.00 0.00 91 1011.5
20260509074717 48 35 0.0 0.0 0.00 0.00 0.00 91 1011.3
20260509074215 48 33 0.0 0.0 0.00 0.00 0.00 91 1011.5
20260509073711 48 44 0.0 0.0 0.00 0.00 0.00 91 1011.1
20260509073207 48 44 0.0 0.0 0.00 0.00 0.00 90 1011.3
20260509072704 48 44 0.0 0.0 0.00 0.00 0.00 90 1011.1
20260509072201 48 44 0.0 0.0 0.00 0.00 0.00 90 1011.1
20260509071657 48 44 0.0 0.0 0.00 0.00 0.00 90 1011.1
20260509071155 48 48 1.0 1.0 0.00 0.00 0.00 90 1011.0
20260509070651 48 79 0.0 0.0 0.00 0.00 0.00 90 1011.1
20260509070148 48 81 1.0 1.0 0.00 0.00 0.00 89 1011.1
20260509065644 48 80 0.0 0.0 0.00 0.00 0.00 89 1011.3
20260509065140 48 86 1.0 1.0 0.00 0.00 0.00 89 1011.5
20260509064637 48 81 0.0 1.0 0.00 0.00 0.00 89 1011.5
20260509064135 48 73 0.0 1.0 0.00 0.00 0.00 88 1011.6
20260509063632 48 88 0.0 0.0 0.00 0.00 0.00 89 1011.8
20260509063128 48 88 2.0 2.0 0.00 0.00 0.00 89 1011.8
20260509062626 48 72 0.0 0.0 0.00 0.00 0.00 89 1011.9
20260509062122 48 77 0.0 1.0 0.00 0.00 0.00 90 1011.9
20260509061619 47 75 2.0 3.0 0.00 0.00 0.00 91 1011.9
20260509061117 47 80 0.0 1.0 0.00 0.00 0.00 92 1012.2
20260509060614 47 113 3.0 4.0 0.00 0.00 0.00 92 1012.2
20260509060110 47 99 1.0 1.0 0.00 0.00 0.00 92 1012.3
20260509055605 47 99 1.0 1.0 0.00 0.00 0.00 92 1012.3
20260509055101 47 90 0.0 0.0 0.00 0.00 0.00 92 1012.3
20260509054558 47 89 1.0 1.0 0.00 0.00 0.00 93 1012.6
20260509054056 47 75 0.0 0.0 0.00 0.00 0.00 93 1012.6
20260509053555 47 99 0.0 0.0 0.00 0.00 0.00 93 1012.4
20260509053051 47 97 1.0 1.0 0.00 0.00 0.00 93 1012.7
20260509052549 48 93 0.0 1.0 0.00 0.00 0.00 93 1012.6
20260509052047 48 85 0.0 0.0 0.00 0.00 0.00 92 1012.7
20260509051545 48 85 0.0 0.0 0.00 0.00 0.00 92 1012.6
20260509051041 48 85 0.0 0.0 0.00 0.00 0.00 92 1012.8
20260509050538 48 90 0.0 0.0 0.00 0.00 0.00 92 1012.8
20260509050034 48 74 0.0 0.0 0.00 0.00 0.00 92 1012.7
20260509045532 48 75 0.0 0.0 0.00 0.00 0.00 92 1012.7
20260509045029 48 74 0.0 1.0 0.00 0.00 0.00 92 1012.9
20260509044526 48 57 0.0 0.0 0.00 0.00 0.00 92 1012.9
20260509044024 48 82 0.0 0.0 0.00 0.00 0.00 92 1012.7
20260509043520 48 77 1.0 1.0 0.00 0.00 0.00 92 1012.9
20260509043010 48 72 1.0 1.0 0.00 0.00 0.00 92 1013.0
20260509042506 48 70 0.0 1.0 0.00 0.00 0.00 92 1013.1
20260509042002 48 72 0.0 0.0 0.00 0.00 0.00 92 1013.3
20260509041459 48 71 0.0 0.0 0.00 0.00 0.00 92 1013.4
20260509040957 48 68 0.0 0.0 0.00 0.00 0.00 92 1013.5
20260509040455 48 80 0.0 0.0 0.07 0.00 0.00 91 1013.4
20260509035951 48 80 0.0 0.0 0.07 0.03 0.03 91 1013.7
20260509035448 48 70 0.0 0.0 0.00 0.02 0.02 91 1013.7
20260509034945 48 74 0.0 0.0 0.00 0.02 0.02 91 1013.8
20260509034443 48 75 0.0 0.0 0.00 0.02 0.02 91 1013.9
20260509033939 48 76 0.0 0.0 0.00 0.02 0.02 91 1013.8
20260509033437 48 76 0.0 0.0 0.00 0.02 0.02 91 1014.1
20260509032933 48 76 0.0 0.0 0.00 0.02 0.02 91 1014.1
20260509032431 48 76 0.0 0.0 0.00 0.02 0.02 90 1014.1
20260509031929 48 75 0.0 0.0 0.00 0.02 0.02 90 1014.0
20260509031426 48 76 0.0 0.0 0.00 0.02 0.02 90 1014.2
20260509030923 48 75 0.0 0.0 0.00 0.02 0.02 90 1014.2
20260509030421 49 76 0.0 0.0 0.00 0.02 0.02 90 1014.3
20260509025918 49 27 0.0 0.0 0.00 0.02 0.02 89 1014.4
20260509025413 49 26 1.0 1.0 0.05 0.02 0.02 89 1014.5
20260509024908 49 83 1.0 1.0 0.05 0.02 0.02 89 1014.4
20260509024405 49 40 1.0 1.0 0.00 0.01 0.01 89 1014.3
20260509023902 49 4 1.0 1.0 0.00 0.01 0.01 89 1014.4
20260509023359 49 78 0.0 1.0 0.00 0.01 0.01 89 1014.4
20260509022855 49 34 0.0 0.0 0.00 0.01 0.01 89 1014.5
20260509022353 49 353 1.0 2.0 0.00 0.01 0.01 89 1014.5
20260509021850 49 107 1.0 1.0 0.00 0.01 0.01 88 1014.2
20260509021347 49 117 1.0 2.0 0.00 0.01 0.01 88 1014.0
20260509020845 49 79 0.0 0.0 0.00 0.01 0.01 88 1014.0
20260509020343 49 126 0.0 1.0 0.00 0.01 0.01 88 1013.9
20260509015840 49 67 0.0 1.0 0.00 0.01 0.01 87 1013.9
20260509015338 50 71 0.0 0.0 0.00 0.01 0.01 87 1013.9
20260509014834 50 78 0.0 0.0 0.00 0.01 0.01 87 1013.9
20260509014326 50 30 0.0 1.0 0.00 0.01 0.01 86 1013.9
20260509013822 50 65 0.0 0.0 0.00 0.01 0.01 86 1013.9
20260509013319 50 57 0.0 0.0 0.07 0.01 0.01 86 1013.7
20260509012814 50 58 0.0 0.0 0.07 0.01 0.01 86 1013.7
20260509012311 50 72 0.0 0.0 0.00 0.00 0.00 85 1013.6
20260509011809 50 17 1.0 1.0 0.00 0.00 0.00 85 1013.5
20260509011306 50 93 1.0 2.0 0.00 0.00 0.00 86 1013.3
20260509010803 50 6 0.0 0.0 0.00 0.00 0.00 86 1013.2
20260509010300 50 30 0.0 1.0 0.00 0.00 0.00 85 1013.0
20260509005758 50 95 1.0 1.0 0.00 0.00 0.00 85 1013.0
20260509005256 50 28 0.0 0.0 0.00 0.00 0.00 85 1013.1
20260509004749 50 64 0.0 1.0 0.00 0.00 0.00 85 1013.1
20260509004246 50 349 1.0 2.0 0.00 0.00 0.00 85 1013.1
20260509003745 50 73 0.0 0.0 0.00 0.00 0.00 85 1013.0
20260509003237 50 106 0.0 0.0 0.00 0.00 0.00 85 1012.9
20260509002734 50 93 0.0 0.0 0.00 0.00 0.00 86 1012.8
20260509002231 50 93 0.0 0.0 0.00 0.00 0.00 85 1012.8
20260509001729 50 81 0.0 0.0 0.00 0.00 0.00 85 1013.0
20260509001224 50 48 0.0 0.0 0.00 0.00 0.00 85 1013.2
20260509000723 51 48 0.0 0.0 0.00 0.00 0.00 85 1013.1
20260509000220 51 27 1.0 1.0 0.00 0.00 0.00 85 1013.1
20260508235717 51 73 0.0 0.0 0.00 0.00 0.00 85 1013.0
20260508235213 51 77 0.0 0.0 0.00 0.00 0.00 84 1012.9
20260508234711 52 86 0.0 0.0 0.00 0.00 0.00 83 1013.0
20260508234206 52 108 1.0 1.0 0.00 0.00 0.00 82 1013.1
20260508233706 52 73 0.0 1.0 0.00 0.00 0.00 82 1013.3
20260508233203 52 51 0.0 0.0 0.00 0.00 0.00 81 1013.4
20260508232700 52 52 0.0 0.0 0.00 0.00 0.00 81 1013.3
20260508232156 52 52 0.0 0.0 0.00 0.00 0.00 81 1013.3
20260508231655 52 51 0.0 0.0 0.00 0.00 0.00 81 1013.1
20260508231151 53 51 1.0 1.0 0.00 0.00 0.00 81 1013.2
20260508230648 53 51 0.0 0.0 0.00 0.00 0.00 80 1013.1
20260508230144 53 51 0.0 0.0 0.00 0.00 0.00 79 1013.2
20260508225642 53 51 0.0 0.0 0.00 0.00 0.00 78 1013.1
20260508225138 53 51 0.0 0.0 0.00 0.00 0.00 78 1013.3
20260508224636 53 51 0.0 0.0 0.00 0.00 0.00 76 1013.3
20260508224134 53 51 0.0 0.0 0.00 0.00 0.00 77 1013.3
20260508223631 54 51 0.0 0.0 0.00 0.00 0.00 75 1013.4
20260508223128 54 51 0.0 0.0 0.00 0.00 0.00 74 1013.3
20260508222625 54 52 1.0 1.0 0.00 0.00 0.00 74 1013.3
20260508222122 54 52 1.0 1.0 0.00 0.00 0.00 74 1013.4
20260508221618 54 69 0.0 0.0 0.00 0.00 0.00 71 1013.2
20260508221114 54 61 0.0 0.0 0.00 0.00 0.00 71 1013.5
20260508220611 55 73 1.0 1.0 0.00 0.00 0.00 70 1013.4
20260508220108 55 94 1.0 1.0 0.00 0.00 0.00 70 1013.5
20260508215604 55 105 0.0 0.0 0.00 0.00 0.00 68 1013.4
20260508215101 55 105 0.0 0.0 0.00 0.00 0.00 69 1013.2
20260508214559 55 108 0.0 0.0 0.00 0.00 0.00 69 1013.2
20260508214055 55 109 0.0 1.0 0.00 0.00 0.00 67 1013.4
20260508213552 55 33 0.0 0.0 0.00 0.00 0.00 68 1013.2
20260508213048 55 26 1.0 1.0 0.00 0.00 0.00 69 1013.2
20260508212545 55 88 0.0 1.0 0.00 0.00 0.00 70 1013.4
20260508212041 55 106 0.0 0.0 0.00 0.00 0.00 70 1013.4
20260508211537 55 105 0.0 0.0 0.00 0.00 0.00 70 1013.4
20260508211033 54 105 0.0 0.0 0.00 0.00 0.00 71 1013.4
20260508210530 54 105 1.0 1.0 0.00 0.00 0.00 73 1013.4
20260508210028 54 114 0.0 0.0 0.00 0.00 0.00 70 1013.7
20260508205524 54 260 0.0 0.0 0.00 0.00 0.00 71 1013.7
20260508205020 54 66 0.0 0.0 0.00 0.00 0.00 73 1013.8
20260508204517 54 99 0.0 1.0 0.00 0.00 0.00 70 1013.7
20260508204013 54 70 0.0 0.0 0.00 0.00 0.00 72 1013.8
20260508203509 54 61 0.0 1.0 0.00 0.00 0.00 72 1013.9
20260508203005 53 312 4.0 4.0 0.00 0.00 0.00 71 1013.9
20260508202502 53 258 1.0 1.0 0.00 0.00 0.00 72 1013.9
20260508201959 53 75 0.0 0.0 0.00 0.00 0.00 73 1013.9
20260508201456 53 213 1.0 2.0 0.00 0.00 0.00 70 1014.1
20260508200953 53 19 1.0 1.0 0.00 0.00 0.00 71 1014.2
20260508200451 54 26 1.0 1.0 0.00 0.00 0.00 70 1014.4
20260508195945 54 9 1.0 1.0 0.00 0.00 0.00 69 1014.6
20260508195443 54 311 3.0 3.0 0.00 0.00 0.00 69 1014.4
20260508194939 54 296 2.0 3.0 0.00 0.00 0.00 69 1014.7
20260508194436 54 356 2.0 2.0 0.00 0.00 0.00 65 1014.6
20260508193933 54 297 6.0 8.0 0.00 0.00 0.00 64 1014.7
20260508193430 54 294 5.0 7.0 0.00 0.00 0.00 63 1014.9
20260508192926 54 268 3.0 6.0 0.00 0.00 0.00 64 1014.5
20260508192423 55 295 4.0 6.0 0.00 0.00 0.00 63 1014.6
20260508191920 55 280 3.0 4.0 0.00 0.00 0.00 61 1014.6
20260508191418 55 288 2.0 3.0 0.00 0.00 0.00 61 1014.6
20260508190914 56 27 4.0 6.0 0.00 0.00 0.00 62 1014.6
20260508190411 56 40 2.0 2.0 0.00 0.00 0.00 60 1014.4
20260508185907 57 330 5.0 8.0 0.00 0.00 0.00 59 1014.5